Location: Norway
(63.2336°N, 9.9976°E)
Time: 15:34:28
(UTC+02:00)

N. Korean satellite - Visible Passes

Search period start: 18 September 2019 00:00
Search period end: 28 September 2019 00:00
Orbit: 455 x 509 km, 97.2° (Epoch: 17 September)

Date Brightness Start Highest point End Pass type
(mag) Time Alt. Az. Time Alt. Az. Time Alt. Az.
22 Sep 10.2 06:05:58 10° ENE 06:07:29 12° E 06:08:58 10° ESE visible
26 Sep 10.4 05:58:54 10° ENE 05:59:50 11° E 06:00:45 10° E visible
26 Sep 10.6 19:53:19 10° WSW 19:54:28 11° W 19:55:37 10° WNW visible
